| time (UTC) | temp F | wind direction | speed MPH | gust MPH | rain 1hr in | rain 24hr in | rain mn in | humidity % | barometer mb |
| 20260509121003 | 54 | 107 | 6.0 | 10.0 | 0.00 | 0.01 | 0.01 | 89 | 1027.7 |
| 20260509120503 | 54 | 109 | 6.0 | 10.0 | 0.00 | 0.01 | 0.01 | 89 | 1027.6 |
| 20260509120003 | 54 | 105 | 6.0 | 10.0 | 0.00 | 0.01 | 0.01 | 89 | 1027.7 |
| 20260509115503 | 54 | 101 | 6.0 | 9.0 | 0.00 | 0.01 | 0.01 | 90 | 1027.6 |
| 20260509115004 | 54 | 97 | 6.0 | 9.0 | 0.00 | 0.01 | 0.01 | 90 | 1027.5 |
| 20260509114503 | 54 | 97 | 5.0 | 9.0 | 0.00 | 0.01 | 0.01 | 90 | 1027.6 |
| 20260509114004 | 54 | 107 | 6.0 | 10.0 | 0.00 | 0.01 | 0.01 | 90 | 1027.5 |
| 20260509113525 | 54 | 114 | 6.0 | 10.0 | 0.00 | 0.01 | 0.01 | 90 | 1027.6 |
| 20260509113003 | 54 | 118 | 6.0 | 10.0 | 0.00 | 0.01 | 0.01 | 90 | 1027.5 |
| 20260509112503 | 54 | 121 | 5.0 | 10.0 | 0.00 | 0.01 | 0.01 | 90 | 1027.5 |
| 20260509112004 | 54 | 118 | 5.0 | 10.0 | 0.00 | 0.01 | 0.01 | 90 | 1027.5 |
| 20260509111503 | 54 | 107 | 5.0 | 9.0 | 0.00 | 0.01 | 0.01 | 90 | 1027.6 |
| 20260509111003 | 54 | 107 | 5.0 | 8.0 | 0.00 | 0.01 | 0.01 | 90 | 1027.5 |
| 20260509110504 | 53 | 108 | 5.0 | 8.0 | 0.00 | 0.01 | 0.01 | 89 | 1027.6 |
| 20260509110003 | 53 | 105 | 4.0 | 8.0 | 0.00 | 0.01 | 0.01 | 89 | 1027.6 |
| 20260509105524 | 53 | 108 | 4.0 | 8.0 | 0.00 | 0.01 | 0.01 | 89 | 1027.7 |
| 20260509105024 | 53 | 107 | 3.0 | 8.0 | 0.00 | 0.01 | 0.01 | 89 | 1027.6 |
| 20260509104524 | 53 | 98 | 3.0 | 6.0 | 0.00 | 0.01 | 0.01 | 89 | 1027.6 |
| 20260509104003 | 53 | 90 | 3.0 | 6.0 | 0.00 | 0.01 | 0.01 | 89 | 1027.6 |
| 20260509103504 | 53 | 91 | 3.0 | 5.0 | 0.00 | 0.01 | 0.01 | 88 | 1027.6 |
| 20260509103003 | 53 | 95 | 4.0 | 5.0 | 0.00 | 0.01 | 0.01 | 88 | 1027.6 |
| 20260509102503 | 54 | 100 | 5.0 | 8.0 | 0.00 | 0.01 | 0.01 | 88 | 1027.6 |
| 20260509102024 | 54 | 98 | 6.0 | 9.0 | 0.00 | 0.01 | 0.01 | 88 | 1027.6 |
| 20260509101503 | 54 | 94 | 6.0 | 10.0 | 0.00 | 0.01 | 0.01 | 88 | 1027.5 |
| 20260509101003 | 54 | 93 | 6.0 | 10.0 | 0.00 | 0.01 | 0.01 | 88 | 1027.6 |
| 20260509100504 | 54 | 93 | 6.0 | 10.0 | 0.00 | 0.01 | 0.01 | 87 | 1027.6 |
| 20260509100024 | 55 | 95 | 6.0 | 9.0 | 0.00 | 0.01 | 0.01 | 87 | 1027.6 |
| 20260509095525 | 55 | 95 | 6.0 | 9.0 | 0.00 | 0.01 | 0.01 | 87 | 1027.6 |
| 20260509095003 | 55 | 94 | 6.0 | 9.0 | 0.00 | 0.01 | 0.01 | 87 | 1027.5 |
| 20260509094503 | 55 | 95 | 6.0 | 9.0 | 0.00 | 0.01 | 0.01 | 86 | 1027.5 |
| 20260509094004 | 56 | 97 | 5.0 | 8.0 | 0.00 | 0.01 | 0.01 | 86 | 1027.6 |
| 20260509093503 | 56 | 97 | 5.0 | 8.0 | 0.00 | 0.01 | 0.01 | 86 | 1027.5 |
| 20260509093003 | 56 | 97 | 5.0 | 8.0 | 0.00 | 0.01 | 0.01 | 86 | 1027.5 |
| 20260509092504 | 56 | 97 | 5.0 | 6.0 | 0.00 | 0.01 | 0.01 | 86 | 1027.5 |
| 20260509092004 | 56 | 99 | 4.0 | 6.0 | 0.00 | 0.01 | 0.01 | 86 | 1027.5 |
| 20260509091503 | 56 | 103 | 4.0 | 6.0 | 0.00 | 0.01 | 0.01 | 85 | 1027.5 |
| 20260509091004 | 57 | 106 | 4.0 | 6.0 | 0.00 | 0.01 | 0.01 | 85 | 1027.5 |
| 20260509090503 | 57 | 102 | 4.0 | 6.0 | 0.00 | 0.01 | 0.01 | 85 | 1027.5 |
| 20260509090004 | 57 | 106 | 3.0 | 6.0 | 0.00 | 0.01 | 0.01 | 84 | 1027.5 |
| 20260509085525 | 58 | 120 | 3.0 | 6.0 | 0.00 | 0.01 | 0.01 | 84 | 1027.5 |
| 20260509085004 | 58 | 127 | 2.0 | 5.0 | 0.00 | 0.01 | 0.01 | 84 | 1027.4 |
| 20260509084504 | 58 | 128 | 1.0 | 5.0 | 0.00 | 0.01 | 0.01 | 83 | 1027.4 |
| 20260509084004 | 59 | 128 | 0.0 | 5.0 | 0.00 | 0.01 | 0.01 | 83 | 1027.4 |
| 20260509083504 | 59 | 127 | 0.0 | 4.0 | 0.00 | 0.01 | 0.01 | 83 | 1027.3 |
| 20260509083004 | 60 | 124 | 0.0 | 3.0 | 0.00 | 0.01 | 0.01 | 83 | 1027.2 |
| 20260509082504 | 60 | 125 | 0.0 | 3.0 | 0.00 | 0.01 | 0.01 | 83 | 1027.2 |
| 20260509082025 | 61 | 119 | 0.0 | 3.0 | 0.00 | 0.01 | 0.01 | 84 | 1027.1 |
| 20260509081525 | 61 | 201 | 0.0 | 5.0 | 0.00 | 0.01 | 0.01 | 84 | 1027.0 |
| 20260509081004 | 62 | 203 | 2.0 | 5.0 | 0.00 | 0.01 | 0.01 | 84 | 1027.1 |
| 20260509080525 | 62 | 198 | 3.0 | 8.0 | 0.00 | 0.01 | 0.01 | 83 | 1027.0 |
| 20260509080004 | 62 | 200 | 4.0 | 8.0 | 0.00 | 0.01 | 0.01 | 83 | 1027.0 |
| 20260509075504 | 62 | 200 | 3.0 | 8.0 | 0.00 | 0.01 | 0.01 | 83 | 1027.0 |
| 20260509075004 | 62 | 203 | 3.0 | 9.0 | 0.00 | 0.01 | 0.01 | 83 | 1026.9 |
| 20260509074504 | 62 | 212 | 3.0 | 9.0 | 0.00 | 0.01 | 0.01 | 82 | 1027.0 |
| 20260509074004 | 62 | 210 | 4.0 | 8.0 | 0.00 | 0.01 | 0.01 | 82 | 1027.0 |
| 20260509073504 | 62 | 203 | 4.0 | 10.0 | 0.00 | 0.01 | 0.01 | 82 | 1027.0 |
| 20260509073025 | 62 | 201 | 4.0 | 10.0 | 0.00 | 0.01 | 0.01 | 81 | 1027.0 |
| 20260509072504 | 62 | 200 | 4.0 | 10.0 | 0.00 | 0.01 | 0.01 | 81 | 1026.9 |
| 20260509072004 | 62 | 208 | 4.0 | 10.0 | 0.00 | 0.01 | 0.01 | 81 | 1026.9 |
| 20260509071504 | 62 | 216 | 4.0 | 9.0 | 0.00 | 0.01 | 0.01 | 81 | 1026.9 |
| 20260509071004 | 62 | 215 | 5.0 | 10.0 | 0.00 | 0.01 | 0.01 | 81 | 1026.9 |
| 20260509070504 | 63 | 223 | 5.0 | 10.0 | 0.00 | 0.01 | 0.01 | 80 | 1026.9 |
| 20260509070004 | 63 | 223 | 5.0 | 10.0 | 0.00 | 0.01 | 0.01 | 80 | 1026.9 |
| 20260509065504 | 63 | 208 | 5.0 | 14.0 | 0.00 | 0.01 | 0.01 | 79 | 1026.9 |
| 20260509065004 | 63 | 209 | 4.0 | 14.0 | 0.00 | 0.01 | 0.01 | 79 | 1026.9 |
| 20260509064504 | 64 | 223 | 4.0 | 10.0 | 0.00 | 0.01 | 0.01 | 79 | 1026.8 |
| 20260509064004 | 64 | 236 | 6.0 | 9.0 | 0.00 | 0.01 | 0.01 | 79 | 1026.9 |
| 20260509063504 | 64 | 222 | 6.0 | 10.0 | 0.00 | 0.01 | 0.01 | 79 | 1026.9 |
| 20260509063004 | 64 | 221 | 6.0 | 10.0 | 0.00 | 0.01 | 0.01 | 79 | 1026.9 |
| 20260509062525 | 63 | 234 | 5.0 | 10.0 | 0.00 | 0.01 | 0.01 | 79 | 1026.9 |
| 20260509062025 | 63 | 245 | 5.0 | 10.0 | 0.00 | 0.01 | 0.01 | 79 | 1026.9 |
| 20260509061504 | 63 | 249 | 5.0 | 10.0 | 0.00 | 0.01 | 0.01 | 79 | 1026.9 |
| 20260509061004 | 64 | 243 | 6.0 | 10.0 | 0.00 | 0.01 | 0.01 | 79 | 1026.9 |
| 20260509060504 | 64 | 231 | 7.0 | 13.0 | 0.00 | 0.01 | 0.01 | 79 | 1026.9 |
| 20260509060025 | 64 | 221 | 8.0 | 13.0 | 0.00 | 0.01 | 0.01 | 78 | 1026.9 |
| 20260509055504 | 64 | 215 | 6.0 | 13.0 | 0.00 | 0.01 | 0.01 | 78 | 1026.9 |
| 20260509055004 | 64 | 200 | 5.0 | 13.0 | 0.00 | 0.01 | 0.01 | 78 | 1026.9 |
| 20260509054504 | 64 | 207 | 5.0 | 11.0 | 0.00 | 0.01 | 0.01 | 79 | 1026.8 |
| 20260509054004 | 63 | 235 | 5.0 | 9.0 | 0.00 | 0.01 | 0.01 | 79 | 1026.8 |
| 20260509053504 | 63 | 230 | 6.0 | 10.0 | 0.00 | 0.01 | 0.01 | 79 | 1026.9 |
| 20260509053004 | 63 | 228 | 7.0 | 10.0 | 0.00 | 0.01 | 0.01 | 78 | 1026.9 |
| 20260509052504 | 63 | 222 | 7.0 | 13.0 | 0.00 | 0.01 | 0.01 | 78 | 1027.0 |
| 20260509052004 | 64 | 221 | 7.0 | 13.0 | 0.00 | 0.01 | 0.01 | 77 | 1026.9 |
| 20260509051504 | 64 | 229 | 6.0 | 11.0 | 0.00 | 0.01 | 0.01 | 77 | 1027.0 |
| 20260509051004 | 64 | 229 | 5.0 | 11.0 | 0.00 | 0.01 | 0.01 | 78 | 1026.9 |
| 20260509050504 | 64 | 222 | 6.0 | 10.0 | 0.00 | 0.01 | 0.01 | 78 | 1026.9 |
| 20260509050025 | 64 | 226 | 7.0 | 13.0 | 0.00 | 0.01 | 0.01 | 79 | 1027.0 |
| 20260509045504 | 63 | 238 | 8.0 | 13.0 | 0.00 | 0.01 | 0.01 | 79 | 1027.0 |
| 20260509045004 | 63 | 228 | 8.0 | 14.0 | 0.00 | 0.01 | 0.01 | 79 | 1027.0 |
| 20260509044504 | 64 | 221 | 8.0 | 14.0 | 0.00 | 0.01 | 0.01 | 79 | 1027.1 |
| 20260509044004 | 63 | 240 | 8.0 | 13.0 | 0.00 | 0.01 | 0.01 | 80 | 1027.1 |
| 20260509043504 | 63 | 244 | 9.0 | 13.0 | 0.00 | 0.01 | 0.01 | 80 | 1027.0 |
| 20260509043004 | 63 | 245 | 9.0 | 14.0 | 0.00 | 0.01 | 0.01 | 80 | 1027.2 |
| 20260509042504 | 62 | 246 | 8.0 | 14.0 | 0.00 | 0.01 | 0.01 | 80 | 1027.2 |
| 20260509042025 | 63 | 242 | 8.0 | 11.0 | 0.00 | 0.01 | 0.01 | 80 | 1027.2 |
| 20260509041504 | 63 | 237 | 8.0 | 13.0 | 0.00 | 0.01 | 0.01 | 79 | 1027.2 |
| 20260509041004 | 63 | 244 | 7.0 | 13.0 | 0.00 | 0.01 | 0.01 | 79 | 1027.2 |
| 20260509040525 | 63 | 249 | 6.0 | 13.0 | 0.00 | 0.01 | 0.01 | 78 | 1027.2 |
| 20260509040004 | 64 | 253 | 5.0 | 11.0 | 0.00 | 0.01 | 0.01 | 77 | 1027.3 |
| 20260509035504 | 64 | 252 | 6.0 | 10.0 | 0.00 | 0.01 | 0.01 | 77 | 1027.2 |
| 20260509035004 | 64 | 256 | 6.0 | 11.0 | 0.00 | 0.02 | 0.01 | 78 | 1027.2 |
| 20260509034525 | 64 | 249 | 7.0 | 11.0 | 0.00 | 0.02 | 0.01 | 76 | 1027.2 |
| 20260509034004 | 65 | 231 | 8.0 | 11.0 | 0.00 | 0.02 | 0.01 | 76 | 1027.3 |
| 20260509033504 | 65 | 237 | 7.0 | 13.0 | 0.00 | 0.02 | 0.01 | 75 | 1027.5 |
| 20260509033025 | 65 | 244 | 6.0 | 13.0 | 0.00 | 0.02 | 0.01 | 77 | 1027.4 |
| 20260509032504 | 64 | 230 | 6.0 | 13.0 | 0.00 | 0.02 | 0.01 | 78 | 1027.5 |
| 20260509032004 | 64 | 216 | 6.0 | 11.0 | 0.00 | 0.02 | 0.01 | 78 | 1027.6 |
| 20260509031503 | 63 | 231 | 6.0 | 11.0 | 0.00 | 0.02 | 0.01 | 79 | 1027.6 |
| 20260509031004 | 63 | 245 | 6.0 | 11.0 | 0.00 | 0.02 | 0.01 | 79 | 1027.8 |
| 20260509030504 | 63 | 245 | 6.0 | 9.0 | 0.00 | 0.02 | 0.01 | 79 | 1027.9 |
| 20260509030004 | 62 | 245 | 6.0 | 11.0 | 0.00 | 0.02 | 0.01 | 79 | 1028.0 |
| 20260509025524 | 62 | 247 | 5.0 | 11.0 | 0.00 | 0.03 | 0.01 | 78 | 1028.1 |
| 20260509025025 | 62 | 243 | 5.0 | 9.0 | 0.00 | 0.03 | 0.01 | 78 | 1028.2 |
| 20260509024503 | 62 | 248 | 6.0 | 10.0 | 0.00 | 0.03 | 0.01 | 78 | 1028.3 |
| 20260509024004 | 62 | 250 | 6.0 | 10.0 | 0.00 | 0.03 | 0.01 | 78 | 1028.4 |
| 20260509023504 | 62 | 248 | 6.0 | 11.0 | 0.00 | 0.03 | 0.01 | 78 | 1028.4 |
| 20260509023004 | 63 | 248 | 6.0 | 11.0 | 0.00 | 0.03 | 0.01 | 78 | 1028.5 |
| 20260509022504 | 63 | 244 | 5.0 | 10.0 | 0.00 | 0.03 | 0.01 | 78 | 1028.6 |
| 20260509022025 | 63 | 217 | 4.0 | 10.0 | 0.00 | 0.03 | 0.01 | 77 | 1028.6 |
| 20260509021524 | 63 | 211 | 4.0 | 10.0 | 0.00 | 0.03 | 0.01 | 77 | 1028.7 |
| 20260509021024 | 63 | 246 | 4.0 | 9.0 | 0.00 | 0.03 | 0.01 | 78 | 1028.8 |
| 20260509020504 | 62 | 255 | 4.0 | 8.0 | 0.00 | 0.04 | 0.01 | 78 | 1028.9 |
| 20260509020004 | 62 | 251 | 4.0 | 8.0 | 0.00 | 0.04 | 0.01 | 78 | 1029.0 |
| 20260509015504 | 62 | 265 | 5.0 | 9.0 | 0.00 | 0.04 | 0.01 | 79 | 1029.1 |
| 20260509015004 | 62 | 264 | 5.0 | 9.0 | 0.00 | 0.04 | 0.01 | 79 | 1029.2 |
| 20260509014504 | 62 | 247 | 4.0 | 9.0 | 0.00 | 0.04 | 0.01 | 79 | 1029.2 |
| 20260509014025 | 62 | 247 | 3.0 | 9.0 | 0.00 | 0.04 | 0.01 | 78 | 1029.3 |
| 20260509013504 | 63 | 228 | 2.0 | 6.0 | 0.00 | 0.04 | 0.01 | 77 | 1029.3 |
| 20260509013004 | 63 | 208 | 1.0 | 6.0 | 0.00 | 0.04 | 0.01 | 76 | 1029.3 |
| 20260509012504 | 64 | 208 | 1.0 | 6.0 | 0.00 | 0.04 | 0.01 | 78 | 1029.3 |
| 20260509012004 | 63 | 206 | 1.0 | 5.0 | 0.00 | 0.04 | 0.01 | 80 | 1029.3 |
| 20260509011524 | 62 | 221 | 2.0 | 6.0 | 0.00 | 0.04 | 0.01 | 81 | 1029.4 |
| 20260509011004 | 62 | 212 | 3.0 | 8.0 | 0.00 | 0.04 | 0.01 | 82 | 1029.4 |
| 20260509010504 | 61 | 231 | 3.0 | 8.0 | 0.00 | 0.04 | 0.01 | 83 | 1029.4 |
| 20260509010004 | 61 | 237 | 3.0 | 6.0 | 0.00 | 0.04 | 0.01 | 83 | 1029.4 |
| 20260509005525 | 61 | 220 | 2.0 | 6.0 | 0.00 | 0.04 | 0.01 | 83 | 1029.4 |
| 20260509005003 | 61 | 222 | 2.0 | 6.0 | 0.00 | 0.04 | 0.01 | 84 | 1029.4 |
| 20260509004503 | 61 | 250 | 3.0 | 8.0 | 0.00 | 0.04 | 0.01 | 85 | 1029.4 |
| 20260509004003 | 60 | 255 | 2.0 | 8.0 | 0.00 | 0.04 | 0.01 | 86 | 1029.5 |
| 20260509003504 | 60 | 254 | 2.0 | 6.0 | 0.00 | 0.04 | 0.01 | 86 | 1029.4 |
| 20260509003024 | 60 | 240 | 2.0 | 6.0 | 0.00 | 0.04 | 0.01 | 87 | 1029.4 |
| 20260509002504 | 60 | 223 | 3.0 | 8.0 | 0.00 | 0.04 | 0.01 | 88 | 1029.4 |
| 20260509002004 | 60 | 225 | 3.0 | 8.0 | 0.00 | 0.04 | 0.01 | 89 | 1029.4 |
| 20260509001524 | 60 | 243 | 3.0 | 6.0 | 0.00 | 0.04 | 0.01 | 90 | 1029.4 |
| 20260509001004 | 59 | 249 | 3.0 | 6.0 | 0.00 | 0.04 | 0.01 | 90 | 1029.5 |
| 20260509000503 | 59 | 225 | 3.0 | 8.0 | 0.00 | 0.04 | 0.01 | 91 | 1029.5 |
| 20260509000004 | 59 | 206 | 2.0 | 8.0 | 0.00 | 0.04 | 0.01 | 91 | 1029.6 |
| 20260508235525 | 59 | 191 | 1.0 | 8.0 | 0.00 | 0.04 | 0.01 | 92 | 1029.5 |
| 20260508235024 | 58 | 179 | 0.0 | 5.0 | 0.00 | 0.04 | 0.01 | 92 | 1029.5 |
| 20260508234503 | 58 | 0 | 0.0 | 0.0 | 0.00 | 0.04 | 0.01 | 92 | 1029.6 |
| 20260508234004 | 57 | 0 | 0.0 | 0.0 | 0.00 | 0.04 | 0.01 | 92 | 1029.7 |
| 20260508233524 | 57 | 0 | 0.0 | 0.0 | 0.00 | 0.04 | 0.01 | 93 | 1029.6 |
| 20260508233004 | 57 | 0 | 0.0 | 0.0 | 0.00 | 0.04 | 0.01 | 93 | 1029.6 |
| 20260508232504 | 56 | 0 | 0.0 | 0.0 | 0.00 | 0.04 | 0.01 | 93 | 1029.6 |
| 20260508232003 | 56 | 0 | 0.0 | 0.0 | 0.00 | 0.04 | 0.01 | 93 | 1029.5 |
| 20260508231503 | 56 | 0 | 0.0 | 0.0 | 0.00 | 0.04 | 0.01 | 93 | 1029.5 |
| 20260508231003 | 56 | 0 | 0.0 | 0.0 | 0.00 | 0.04 | 0.01 | 93 | 1029.4 |
| 20260508230503 | 55 | 0 | 0.0 | 0.0 | 0.00 | 0.04 | 0.01 | 93 | 1029.3 |
| 20260508230004 | 55 | 0 | 0.0 | 0.0 | 0.00 | 0.04 | 0.01 | 93 | 1029.3 |
| 20260508225504 | 55 | 0 | 0.0 | 0.0 | 0.00 | 0.04 | 0.01 | 92 | 1029.4 |
| 20260508225003 | 55 | 0 | 0.0 | 0.0 | 0.00 | 0.04 | 0.01 | 92 | 1029.3 |
| 20260508224503 | 55 | 0 | 0.0 | 0.0 | 0.00 | 0.04 | 0.01 | 93 | 1029.3 |
| 20260508224004 | 55 | 0 | 0.0 | 0.0 | 0.00 | 0.04 | 0.01 | 93 | 1029.2 |
| 20260508223524 | 55 | 0 | 0.0 | 0.0 | 0.00 | 0.04 | 0.01 | 93 | 1029.1 |
| 20260508223003 | 55 | 0 | 0.0 | 0.0 | 0.00 | 0.04 | 0.01 | 93 | 1029.1 |
| 20260508222503 | 55 | 0 | 0.0 | 0.0 | 0.00 | 0.04 | 0.01 | 93 | 1029.1 |
| 20260508222004 | 55 | 0 | 0.0 | 0.0 | 0.00 | 0.04 | 0.01 | 93 | 1029.1 |
| 20260508221524 | 55 | 0 | 0.0 | 0.0 | 0.00 | 0.04 | 0.01 | 93 | 1029.1 |
| 20260508221024 | 55 | 0 | 0.0 | 0.0 | 0.00 | 0.04 | 0.01 | 93 | 1029.1 |
| 20260508220503 | 54 | 0 | 0.0 | 0.0 | 0.00 | 0.04 | 0.01 | 93 | 1029.1 |
| 20260508220003 | 54 | 0 | 0.0 | 0.0 | 0.00 | 0.04 | 0.01 | 93 | 1029.0 |
| 20260508215503 | 54 | 0 | 0.0 | 0.0 | 0.00 | 0.04 | 0.01 | 93 | 1029.0 |
| 20260508215025 | 54 | 0 | 0.0 | 0.0 | 0.00 | 0.04 | 0.01 | 93 | 1028.9 |
| 20260508214524 | 53 | 0 | 0.0 | 0.0 | 0.00 | 0.04 | 0.01 | 93 | 1029.0 |
| 20260508214025 | 53 | 0 | 0.0 | 0.0 | 0.00 | 0.04 | 0.01 | 93 | 1028.9 |
| 20260508213503 | 53 | 0 | 0.0 | 0.0 | 0.00 | 0.04 | 0.01 | 92 | 1028.9 |
| 20260508213003 | 53 | 98 | 1.0 | 3.0 | 0.00 | 0.04 | 0.01 | 92 | 1028.8 |
| 20260508212503 | 53 | 98 | 1.0 | 3.0 | 0.00 | 0.04 | 0.01 | 92 | 1028.7 |
| 20260508212003 | 53 | 98 | 0.0 | 3.0 | 0.00 | 0.04 | 0.01 | 92 | 1028.7 |
| 20260508211503 | 53 | 98 | 0.0 | 3.0 | 0.00 | 0.04 | 0.01 | 92 | 1028.6 |
| 20260508211003 | 53 | 0 | 0.0 | 0.0 | 0.00 | 0.04 | 0.01 | 92 | 1028.6 |
| 20260508210503 | 53 | 0 | 0.0 | 0.0 | 0.00 | 0.04 | 0.01 | 92 | 1028.5 |
| 20260508210003 | 53 | 0 | 0.0 | 0.0 | 0.00 | 0.04 | 0.01 | 92 | 1028.5 |
| 20260508205504 | 53 | 98 | 0.0 | 1.0 | 0.00 | 0.04 | 0.01 | 92 | 1028.5 |
| 20260508205003 | 53 | 98 | 1.0 | 3.0 | 0.00 | 0.04 | 0.01 | 92 | 1028.6 |
| 20260508204503 | 53 | 98 | 2.0 | 5.0 | 0.00 | 0.04 | 0.01 | 92 | 1028.5 |
| 20260508204003 | 53 | 98 | 3.0 | 5.0 | 0.00 | 0.04 | 0.01 | 92 | 1028.4 |
| 20260508203503 | 53 | 98 | 4.0 | 5.0 | 0.00 | 0.04 | 0.01 | 92 | 1028.4 |
| 20260508203004 | 53 | 99 | 4.0 | 8.0 | 0.00 | 0.04 | 0.01 | 92 | 1028.3 |
| 20260508202525 | 53 | 98 | 4.0 | 8.0 | 0.00 | 0.04 | 0.01 | 92 | 1028.3 |
| 20260508202004 | 53 | 98 | 4.0 | 5.0 | 0.00 | 0.04 | 0.01 | 92 | 1028.2 |
| 20260508201504 | 53 | 98 | 4.0 | 6.0 | 0.00 | 0.04 | 0.01 | 92 | 1028.2 |
| 20260508201004 | 53 | 100 | 4.0 | 6.0 | 0.00 | 0.04 | 0.01 | 92 | 1028.1 |
| 20260508200525 | 53 | 100 | 4.0 | 6.0 | 0.00 | 0.04 | 0.01 | 92 | 1028.1 |
| 20260508200004 | 53 | 96 | 4.0 | 6.0 | 0.00 | 0.04 | 0.01 | 92 | 1028.1 |
| 20260508195504 | 53 | 92 | 4.0 | 6.0 | 0.00 | 0.04 | 0.01 | 92 | 1028.0 |
| 20260508195025 | 53 | 93 | 3.0 | 6.0 | 0.00 | 0.04 | 0.01 | 92 | 1028.0 |
| 20260508194525 | 53 | 100 | 3.0 | 6.0 | 0.00 | 0.04 | 0.01 | 92 | 1028.0 |
| 20260508194004 | 53 | 97 | 3.0 | 6.0 | 0.00 | 0.04 | 0.01 | 92 | 1028.0 |
| 20260508193504 | 53 | 92 | 5.0 | 6.0 | 0.00 | 0.04 | 0.01 | 92 | 1027.9 |
| 20260508193004 | 53 | 95 | 5.0 | 8.0 | 0.00 | 0.04 | 0.01 | 92 | 1027.9 |
| 20260508192504 | 53 | 98 | 5.0 | 9.0 | 0.00 | 0.04 | 0.01 | 92 | 1027.9 |
| 20260508192004 | 53 | 100 | 5.0 | 9.0 | 0.00 | 0.04 | 0.01 | 92 | 1027.9 |
| 20260508191525 | 53 | 99 | 5.0 | 6.0 | 0.00 | 0.04 | 0.01 | 92 | 1027.8 |
| 20260508191004 | 53 | 98 | 5.0 | 6.0 | 0.00 | 0.04 | 0.01 | 92 | 1027.7 |
| 20260508190504 | 53 | 101 | 4.0 | 6.0 | 0.00 | 0.04 | 0.01 | 92 | 1027.7 |
| 20260508190004 | 53 | 106 | 3.0 | 6.0 | 0.00 | 0.04 | 0.01 | 92 | 1027.6 |
| 20260508185504 | 53 | 108 | 3.0 | 5.0 | 0.00 | 0.04 | 0.01 | 92 | 1027.7 |
| 20260508185004 | 53 | 107 | 4.0 | 5.0 | 0.00 | 0.04 | 0.01 | 92 | 1027.7 |
| 20260508184504 | 53 | 105 | 4.0 | 6.0 | 0.00 | 0.04 | 0.01 | 92 | 1027.7 |
| 20260508184004 | 53 | 103 | 4.0 | 6.0 | 0.00 | 0.04 | 0.01 | 92 | 1027.7 |
| 20260508183504 | 53 | 104 | 3.0 | 6.0 | 0.00 | 0.04 | 0.01 | 92 | 1027.7 |
| 20260508183004 | 53 | 106 | 3.0 | 6.0 | 0.00 | 0.04 | 0.01 | 92 | 1027.8 |
| 20260508182525 | 53 | 105 | 4.0 | 6.0 | 0.00 | 0.04 | 0.01 | 92 | 1027.9 |
| 20260508182025 | 53 | 101 | 4.0 | 6.0 | 0.00 | 0.04 | 0.01 | 92 | 1027.9 |
| 20260508181504 | 52 | 98 | 3.0 | 6.0 | 0.00 | 0.04 | 0.01 | 92 | 1028.0 |
| 20260508181004 | 52 | 98 | 3.0 | 5.0 | 0.00 | 0.04 | 0.01 | 92 | 1028.0 |
| 20260508180504 | 52 | 98 | 3.0 | 5.0 | 0.00 | 0.04 | 0.01 | 92 | 1028.0 |
| 20260508180004 | 52 | 98 | 3.0 | 6.0 | 0.00 | 0.04 | 0.01 | 92 | 1028.0 |
| 20260508175525 | 52 | 98 | 4.0 | 6.0 | 0.00 | 0.04 | 0.01 | 92 | 1028.0 |
| 20260508175004 | 52 | 98 | 4.0 | 6.0 | 0.00 | 0.04 | 0.01 | 92 | 1028.0 |
| 20260508174504 | 52 | 98 | 3.0 | 6.0 | 0.00 | 0.04 | 0.01 | 92 | 1028.1 |
| 20260508174025 | 52 | 98 | 3.0 | 6.0 | 0.00 | 0.04 | 0.01 | 92 | 1028.1 |
| 20260508173525 | 52 | 98 | 3.0 | 6.0 | 0.00 | 0.04 | 0.01 | 92 | 1028.1 |
| 20260508173004 | 51 | 98 | 4.0 | 5.0 | 0.00 | 0.04 | 0.01 | 92 | 1028.2 |
| 20260508172504 | 51 | 101 | 4.0 | 6.0 | 0.00 | 0.04 | 0.01 | 91 | 1028.2 |
| 20260508172004 | 51 | 92 | 4.0 | 6.0 | 0.00 | 0.04 | 0.01 | 91 | 1028.2 |
| 20260508171525 | 51 | 78 | 4.0 | 5.0 | 0.00 | 0.04 | 0.01 | 91 | 1028.2 |
| 20260508171025 | 52 | 82 | 3.0 | 5.0 | 0.00 | 0.04 | 0.01 | 91 | 1028.2 |
| 20260508170504 | 52 | 88 | 3.0 | 5.0 | 0.00 | 0.04 | 0.01 | 91 | 1028.1 |
| 20260508170004 | 52 | 88 | 4.0 | 5.0 | 0.00 | 0.04 | 0.01 | 91 | 1028.1 |
| 20260508165525 | 52 | 88 | 4.0 | 6.0 | 0.00 | 0.04 | 0.01 | 91 | 1028.1 |
| 20260508165004 | 52 | 88 | 4.0 | 6.0 | 0.00 | 0.04 | 0.01 | 91 | 1028.1 |
| 20260508164504 | 52 | 88 | 4.0 | 6.0 | 0.00 | 0.04 | 0.01 | 91 | 1028.1 |
| 20260508164025 | 52 | 88 | 4.0 | 5.0 | 0.00 | 0.04 | 0.01 | 91 | 1028.1 |
| 20260508163504 | 52 | 88 | 4.0 | 5.0 | 0.00 | 0.04 | 0.01 | 91 | 1028.1 |
| 20260508163004 | 52 | 90 | 5.0 | 6.0 | 0.00 | 0.04 | 0.01 | 91 | 1028.0 |
| 20260508162504 | 52 | 93 | 4.0 | 8.0 | 0.00 | 0.04 | 0.01 | 91 | 1028.1 |
| 20260508162004 | 52 | 94 | 2.0 | 8.0 | 0.00 | 0.04 | 0.01 | 90 | 1028.1 |
| 20260508161504 | 52 | 95 | 0.0 | 8.0 | 0.00 | 0.04 | 0.01 | 90 | 1028.0 |
| 20260508161004 | 52 | 0 | 0.0 | 0.0 | 0.01 | 0.04 | 0.01 | 90 | 1028.0 |
| 20260508160525 | 52 | 0 | 0.0 | 0.0 | 0.01 | 0.04 | 0.01 | 90 | 1028.1 |
| 20260508160004 | 52 | 0 | 0.0 | 0.0 | 0.01 | 0.04 | 0.01 | 90 | 1028.1 |
| 20260508155504 | 52 | 0 | 0.0 | 0.0 | 0.01 | 0.04 | 0.01 | 90 | 1028.1 |
| 20260508155004 | 52 | 0 | 0.0 | 0.0 | 0.01 | 0.04 | 0.01 | 90 | 1028.1 |
| 20260508154504 | 52 | 0 | 0.0 | 0.0 | 0.01 | 0.04 | 0.01 | 89 | 1028.1 |
| 20260508154004 | 53 | 0 | 0.0 | 0.0 | 0.01 | 0.04 | 0.01 | 89 | 1028.2 |
| 20260508153504 | 53 | 0 | 0.0 | 0.0 | 0.01 | 0.04 | 0.01 | 89 | 1028.2 |
| 20260508153004 | 53 | 0 | 0.0 | 0.0 | 0.01 | 0.04 | 0.01 | 89 | 1028.1 |
| 20260508152525 | 53 | 0 | 0.0 | 0.0 | 0.01 | 0.04 | 0.01 | 89 | 1028.1 |
| 20260508152004 | 54 | 0 | 0.0 | 0.0 | 0.01 | 0.04 | 0.01 | 89 | 1028.1 |
| 20260508151504 | 54 | 0 | 0.0 | 0.0 | 0.01 | 0.04 | 0.01 | 89 | 1028.2 |
| 20260508151025 | 54 | 0 | 0.0 | 0.0 | 0.00 | 0.03 | 0.00 | 89 | 1028.2 |
| 20260508150504 | 54 | 0 | 0.0 | 0.0 | 0.00 | 0.03 | 0.00 | 89 | 1028.2 |
| 20260508150004 | 55 | 0 | 0.0 | 0.0 | 0.00 | 0.03 | 0.00 | 89 | 1028.2 |
| 20260508145504 | 55 | 0 | 0.0 | 0.0 | 0.00 | 0.03 | 0.00 | 89 | 1028.2 |
| 20260508145004 | 55 | 0 | 0.0 | 0.0 | 0.00 | 0.03 | 0.00 | 89 | 1028.2 |
| 20260508144504 | 55 | 0 | 0.0 | 0.0 | 0.00 | 0.03 | 0.00 | 89 | 1028.2 |
| 20260508144025 | 55 | 0 | 0.0 | 0.0 | 0.00 | 0.03 | 0.00 | 89 | 1028.3 |
| 20260508143503 | 55 | 0 | 0.0 | 0.0 | 0.00 | 0.03 | 0.00 | 89 | 1028.3 |
| 20260508143005 | 55 | 208 | 0.0 | 3.0 | 0.00 | 0.03 | 0.00 | 89 | 1028.3 |
| 20260508142504 | 55 | 204 | 0.0 | 3.0 | 0.00 | 0.03 | 0.03 | 89 | 1028.3 |
| 20260508142004 | 55 | 190 | 0.0 | 3.0 | 0.00 | 0.03 | 0.03 | 89 | 1028.4 |
| 20260508141504 | 55 | 190 | 0.0 | 3.0 | 0.00 | 0.03 | 0.03 | 89 | 1028.4 |
| 20260508141025 | 55 | 0 | 0.0 | 0.0 | 0.00 | 0.03 | 0.03 | 89 | 1028.4 |
| 20260508140504 | 55 | 0 | 0.0 | 0.0 | 0.00 | 0.03 | 0.03 | 89 | 1028.3 |
| 20260508140004 | 55 | 0 | 0.0 | 0.0 | 0.00 | 0.03 | 0.03 | 89 | 1028.4 |
| 20260508135503 | 55 | 0 | 0.0 | 0.0 | 0.00 | 0.03 | 0.03 | 89 | 1028.5 |
| 20260508135004 | 55 | 0 | 0.0 | 0.0 | 0.00 | 0.03 | 0.03 | 89 | 1028.4 |
| 20260508134504 | 55 | 0 | 0.0 | 0.0 | 0.00 | 0.03 | 0.03 | 89 | 1028.5 |
| 20260508134003 | 55 | 0 | 0.0 | 0.0 | 0.00 | 0.03 | 0.03 | 89 | 1028.6 |
| 20260508133504 | 55 | 0 | 0.0 | 0.0 | 0.00 | 0.03 | 0.03 | 89 | 1028.6 |
| 20260508133004 | 55 | 0 | 0.0 | 0.0 | 0.00 | 0.03 | 0.03 | 89 | 1028.6 |
| 20260508132503 | 55 | 0 | 0.0 | 0.0 | 0.00 | 0.03 | 0.03 | 89 | 1028.7 |
| 20260508132004 | 54 | 0 | 0.0 | 0.0 | 0.00 | 0.03 | 0.03 | 89 | 1028.7 |
| 20260508131525 | 54 | 0 | 0.0 | 0.0 | 0.00 | 0.03 | 0.03 | 89 | 1028.7 |
| 20260508131004 | 54 | 0 | 0.0 | 0.0 | 0.00 | 0.03 | 0.03 | 89 | 1028.7 |
| 20260508130504 | 54 | 182 | 1.0 | 1.0 | 0.00 | 0.03 | 0.03 | 89 | 1028.7 |
| 20260508130004 | 54 | 182 | 1.0 | 3.0 | 0.00 | 0.03 | 0.03 | 89 | 1028.7 |
| 20260508125504 | 54 | 182 | 1.0 | 3.0 | 0.00 | 0.03 | 0.03 | 89 | 1028.8 |
| 20260508125004 | 54 | 182 | 0.0 | 3.0 | 0.00 | 0.03 | 0.03 | 88 | 1028.8 |
| 20260508124525 | 54 | 182 | 0.0 | 3.0 | 0.00 | 0.03 | 0.03 | 88 | 1028.8 |
| 20260508124025 | 54 | 0 | 0.0 | 0.0 | 0.00 | 0.03 | 0.03 | 88 | 1028.9 |
| 20260508123525 | 54 | 180 | 1.0 | 3.0 | 0.00 | 0.03 | 0.03 | 88 | 1028.9 |
| 20260508123004 | 54 | 180 | 1.0 | 3.0 | 0.00 | 0.03 | 0.03 | 88 | 1028.9 |
| 20260508122504 | 54 | 180 | 3.0 | 3.0 | 0.00 | 0.03 | 0.03 | 88 | 1028.8 |
| 20260508122003 | 54 | 184 | 3.0 | 3.0 | 0.00 | 0.03 | 0.03 | 88 | 1028.9 |
| 20260508121503 | 54 | 182 | 5.0 | 5.0 | 0.00 | 0.03 | 0.03 | 88 | 1028.9 |